Home > Weather > Suzuka > Past weeks

Flag for Japan Weather for the Past 2 Weeks in Suzuka, Japan

Now
47 °F

Cool.


Feels Like: 47 °F
Forecast: 44 / 60 °F
Wind: 2 mph from West

Location: Tsu

Current Time: Feb 12, 2016 at 9:26:56 PM

Latest Report: Feb 12, 2016 at 8:00 PM


Visibility: N/A

Pressure: 30.36 "Hg

Humidity: 83%

Dew point: 42 °F

Location of SuzukaLocation

Historic Weather in Suzuka — Graph

°F

Suzuka Temperature Yesterday

Maximum temperature yesterday: 49 °F (at 4:00 PM)
Minimum temperature yesterday: 37 °F (at 2:00 AM)
Average temperature yesterday: 42 °F

High & Low Weather Summary for the Past Weeks

 TemperatureHumidityPressure
High54 °F (Jan 31, 4:00 PM)95% (Jan 29, 8:00 PM)30.50 "Hg (Jan 29, 8:00 PM)
Low31 °F (Feb 8, 6:00 AM)27% (Feb 5, 2:00 PM)29.87 "Hg (Feb 9, 1:00 PM)
Average43 °F58%30.15 "Hg
* Reported Jan 28 8:00 PM — Feb 12 8:00 PM, Suzuka, Weather by CustomWeather, © 2016

Note: Actual official high and low records may vary slightly from our data, if they occured in-between our weather recording intervals... More about our weather records

Advertising

Suzuka Weather History for the Previous 24 Hours

 ConditionsComfort  
Time TempWeatherWind HumidityBarometerVisibility
8:00 PM
Fri, Feb 12
47 °FCool.2 mph83%30.36 "HgN/A
7:00 PM47 °FCool.5 mph81%30.37 "HgN/A
6:00 PM47 °FCool.3 mph78%30.39 "HgN/A
5:00 PM47 °FCool.3 mph76%30.39 "HgN/A
4:00 PM47 °FCool.2 mph74%30.40 "HgN/A
3:00 PM47 °FOvercast.2 mph72%30.41 "Hg5 mi
1:00 PM46 °FCool.5 mph78%30.45 "HgN/A
12:00 PM46 °FCool.3 mph75%30.47 "HgN/A
5:00 AM43 °FQuite cool.2 mph64%30.49 "HgN/A
4:00 AM44 °FQuite cool.2 mph63%30.48 "HgN/A
3:00 AM42 °FQuite cool.3 mph66%30.48 "HgN/A
2:00 AM41 °FQuite cool.3 mph62%30.48 "HgN/A
1:00 AM40 °FChilly.3 mph63%30.49 "HgN/A
12:00 AM40 °FChilly.3 mph63%30.50 "HgN/A
11:00 PM
Thu, Feb 11
39 °FChilly.3 mph59%30.50 "HgN/A
10:00 PM39 °FChilly.6 mph58%30.49 "HgN/A
9:00 PM41 °FClear.6 mph61%30.48 "Hg12 mi
Weather by CustomWeather, © 2016

See weather overviewHow to use our weather pages